Flight Track Log - Related Links

Times and Time Zones

All times are in EDT time to prevent confusion due to time zone crossing. See the JBU19 flight status page for this flight to view local times or setup timezone preferences in your user account.

Time Position Orientation Groundspeed Altitude Reporting Facility
EDT Latitude Longitude Course Direction KTS MPH feet Rate Location/Type
Wed 06:05:06 AM 44.3883 -73.1519 193° South 203 234 4,100  Level Boston Center
Wed 06:06:06 AM 44.3194 -73.1800 196° South 242 278 7,000 3,050 Climbing Boston Center
Wed 06:07:00 AM 44.1567 -73.2663 195° South  Level FlightAware Approximate
Wed 06:07:06 AM 44.2442 -73.2108 196° South 275 316 10,200  Level Boston Center
Wed 06:08:00 AM 44.0787 -73.2955 195° South  Level FlightAware Approximate
Wed 06:08:06 AM 44.1564 -73.2475 197° South 316 364 12,000  Level Boston Center
Wed 06:09:00 AM 44.0003 -73.3222 194° South  Level FlightAware Approximate
Wed 06:09:06 AM 44.0603 -73.2867 196° South 351 404 15,000  Level Boston Center
Wed 06:10:00 AM 43.9217 -73.3483 193° South  Level FlightAware Approximate
Wed 06:10:06 AM 43.9494 -73.3311 196° South 370 426 18,200  Level Boston Center
Wed 06:11:06 AM 43.8511 -73.3728 197° South 370 426 20,500 1,900 Climbing Boston Center
Wed 06:12:06 AM 43.7489 -73.4144 196° South 383 441 22,000 750 Climbing Boston Center
Wed 06:13:06 AM 43.6547 -73.4472 194° South 383 441 22,000  Level Boston Center
Wed 06:14:06 AM 43.5481 -73.4883 196° South 383 441 22,000  Level Boston Center
Wed 06:15:06 AM 43.4436 -73.5294 196° South 388 447 22,000  Level Boston Center
Wed 06:16:06 AM 43.3367 -73.5733 197° South 393 452 22,000  Level Boston Center
Wed 06:17:06 AM 43.2322 -73.6114 195° South 398 458 22,000  Level Boston Center
Wed 06:18:06 AM 43.1128 -73.6631 198° South 409 471 22,000  Level Boston Center
Wed 06:19:06 AM 43.0103 -73.7008 195° South 403 464 22,000  Level Boston Center
Wed 06:20:06 AM 42.9014 -73.7467 197° South 403 464 22,000  Level Boston Center
Wed 06:21:06 AM 42.7989 -73.7869 196° South 403 464 22,000  Level Boston Center
Wed 06:22:06 AM 42.6903 -73.8072 188° South 398 458 22,000  Level Boston Center
Wed 06:23:06 AM 42.5922 -73.8106 181° South 399 459 22,000  Level Boston Center
Wed 06:24:06 AM 42.4817 -73.8111 180° South 399 459 22,000  Level Boston Center
Wed 06:25:06 AM 42.3836 -73.8144 181° South 381 438 22,000  Level Boston Center
Wed 06:26:06 AM 42.2858 -73.8181 182° South 362 417 22,000  Level Boston Center
Wed 06:27:06 AM 42.1897 -73.8186 180° South 356 410 22,000  Level Boston Center
Wed 06:28:06 AM 42.0919 -73.8194 180° South 351 404 22,000  Level Boston Center
Wed 06:29:06 AM 41.9961 -73.8200 180° South 346 398 22,000  Level Boston Center
Wed 06:30:06 AM 41.9022 -73.8236 182° South 346 398 22,000  Level Boston Center
Wed 06:31:06 AM 41.8083 -73.8242 180° South 346 398 22,000  Level Boston Center
Wed 06:32:06 AM 41.7425 -73.9147 226° Southwest 302 348 22,000  Level Boston Center
Wed 06:33:06 AM 41.6933 -74.0108 236° Southwest 302 348 22,000 -276 Level Boston Center
Wed 06:35:00 AM 41.5519 -73.9506 162° South 270 311 21,200 -617 Descending New York Center
Wed 06:36:01 AM 41.4667 -73.9522 181° South 291 335 20,200 -590 Descending New York Center
Wed 06:37:02 AM 41.4058 -74.0378 227° Southwest 284 327 20,000 -98 Descending New York Center
Wed 06:38:03 AM 41.3372 -74.1089 218° Southwest 305 351 20,000  Level New York Center
Wed 06:39:03 AM 41.2606 -74.1714 212° Southwest 318 366 20,000  Level New York Center
Wed 06:40:01 AM 41.1708 -74.1753 182° South 318 366 20,000 -407 Level New York Center
Wed 06:41:01 AM 41.0817 -74.1597 173° South 316 364 19,200 -500 Descending New York Center
Wed 06:42:01 AM 40.9758 -74.1461 174° South 335 386 19,000 -98 Descending New York Center
Wed 06:43:03 AM 40.9000 -74.1039 157° South 335 386 19,000 -550 Level New York Center
Wed 06:44:01 AM 40.8514 -73.9753 117° Southeast 322 371 17,900 -1,373 Descending New York Center
Wed 06:45:01 AM 40.8169 -73.8667 113° Southeast 343 395 16,300 -1,600 Descending New York Center
Wed 06:46:01 AM 40.7972 -73.7425 102° East 350 403 14,700 -1,884 Descending New York Center
Wed 06:47:02 AM 40.7133 -73.6814 151° Southeast 306 352 12,500 -2,000 Descending New York Center
Wed 06:48:01 AM 40.6392 -73.6508 163° South 308 354 10,700 -1,881 Descending New York Center
Wed 06:49:16 AM 40.5333 -73.6000 160° South 298 343 8,300 -1,149 Descending New York TRACON
Wed 06:50:22 AM 40.4333 -73.5667 166° South 294 338 8,000 -143 Descending New York TRACON
Wed 06:51:22 AM 40.3667 -73.6000 201° Southwest 291 335 8,000 -61 Level New York TRACON
Wed 06:52:01 AM 40.3292 -73.6297 211° Southwest 284 327 7,900 -857 Descending New York Center
Wed 06:53:00 AM 40.3058 -73.7294 253° West 251 289 6,600 -893 Descending New York Center
Wed 06:54:02 AM 40.3161 -73.8142 279° West 230 265 6,100 -772 Descending New York Center
Wed 06:56:22 AM 40.4000 -73.9333 313° West 173 199 4,000 -630 Descending New York TRACON
Wed 06:57:22 AM 40.4333 -73.9333 360° North 165 190 4,000 -300 Level New York TRACON
Wed 06:58:22 AM 40.4833 -73.9000 27° Northeast 159 183 3,400 -700 Descending New York TRACON
Wed 06:59:22 AM 40.5167 -73.8667 37° Northeast 153 176 2,600 -800 Descending New York TRACON
Wed 07:00:22 AM 40.5500 -73.8500 21° North 147 169 1,800 -750 Descending New York TRACON
Wed 07:01:22 AM 40.5833 -73.8167 37° Northeast 118 136 1,100 -714 Descending New York TRACON
Wed 07:02:28 AM 40.6167 -73.8000 21° North 125 144 300 -727 Descending New York TRACON

Login

Don't have an account? Register now (free) for customized features, flight alerts, and more!